Springboro, OH

12:10 PM EST on February 12, 2016 (GMT -0500)
Dayton-Wright Brothers

Weather History for KMGY - January, 2013

Change the Weather History Date:

Sunday, January 6, 2013

  Actual Average (KFFO) Record (KFFO)
Temperature  
Mean Temperature 32 °F -  
Max Temperature 37 °F 36 °F 60 °F (1998)
Min Temperature 26 °F 21 °F -9 °F (2014)
Degree Days  
Heating Degree Days 34    
Moisture  
Dew Point 26 °F    
Average Humidity 77    
Maximum Humidity 89    
Minimum Humidity 72    
Precipitation  
Precipitation 0.00 in - - ()
Sea Level Pressure  
Sea Level Pressure 30.13 in    
Wind  
Wind Speed 10 mph (WSW)    
Max Wind Speed 16 mph    
Max Gust Speed 24 mph    
Visibility 8 miles    
Events      
Averages and records for this station are not official NWS values.
T = Trace of Precipitation, MM = Missing Value Source: NWS Daily Summary

Daily Weather History Graph

Daily Weather History Graph

Search for Another Location

Airport or City:

Trip Planner

Search our weather history database for the weather conditions in past years. The results will help you decide how hot, cold, wet, or windy it might be!

Date:

Astronomy

Jan. 06, 2013 Rise Set
Actual Time 7:57 AM EST 5:28 PM EST
Civil Twilight 7:27 AM EST 5:58 PM EST
Nautical Twilight 6:54 AM EST 6:31 PM EST
Astronomical Twilight 6:21 AM EST 7:04 PM EST
Moon 2:11 AM EST (1/6) 12:54 PM EST (1/6)
Length of Visible Light 10h 30m
Length of Day
9h 30m
Waning Crescent, 33% of the Moon is Illuminated
Jan 6
Waning Crescent
Jan 11
New
Jan 18
First Quarter
Jan 26
Full
Feb 3
Last Quarter

Hourly Weather History & Observations

Time (EST) Temp. Windchill Dew Point Humidity Pressure Visibility Wind Dir Wind Speed Gust Speed Precip Events Conditions
12:53 AM 32.0 °F 25.6 °F 25.0 °F 75% 30.15 in 10.0 mi SSW 6.9 mph - N/A   Overcast
1:53 AM 34.0 °F 28.0 °F 26.1 °F 73% 30.13 in 10.0 mi SSW 6.9 mph - N/A   Overcast
2:53 AM 34.0 °F 27.2 °F 26.1 °F 73% 30.11 in 10.0 mi SSW 8.1 mph - N/A   Overcast
3:53 AM 35.1 °F 27.4 °F 27.0 °F 72% 30.09 in 10.0 mi SSW 10.4 mph - N/A   Overcast
4:53 AM 35.1 °F 27.4 °F 27.0 °F 72% 30.07 in 10.0 mi SSW 10.4 mph - N/A   Overcast
5:53 AM 36.0 °F 29.0 °F 28.0 °F 73% 30.06 in 10.0 mi SW 9.2 mph - N/A   Overcast
6:53 AM 36.0 °F 28.0 °F 28.0 °F 73% 30.06 in 10.0 mi SW 11.5 mph - N/A   Overcast
7:53 AM 36.0 °F 28.0 °F 28.0 °F 73% 30.06 in 10.0 mi SSW 11.5 mph - N/A   Overcast
8:53 AM 36.0 °F 28.5 °F 28.9 °F 76% 30.07 in 10.0 mi SSW 10.4 mph - N/A   Overcast
9:53 AM 36.0 °F 28.0 °F 28.9 °F 76% 30.07 in 10.0 mi SW 11.5 mph - N/A   Overcast
10:44 AM 35.6 °F 28.6 °F 30.2 °F 81% 30.05 in 10.0 mi SSW 9.2 mph - N/A   Overcast
10:53 AM 37.0 °F 29.8 °F 28.9 °F 73% 30.07 in 10.0 mi SW 10.4 mph - N/A   Overcast
11:18 AM 37.4 °F 29.3 °F 30.2 °F 75% 30.04 in 10.0 mi SW 12.7 mph - N/A   Overcast
11:28 AM 37.4 °F 29.8 °F 30.2 °F 75% 30.03 in 10.0 mi SW 11.5 mph - N/A   Overcast
11:53 AM 37.0 °F 28.9 °F 30.0 °F 76% 30.04 in 10.0 mi SW 12.7 mph - N/A   Overcast
12:53 PM 37.0 °F 29.3 °F 30.0 °F 76% 30.03 in 10.0 mi SW 11.5 mph - N/A   Overcast
1:53 PM 36.0 °F 28.5 °F 30.9 °F 82% 30.04 in 8.0 mi WSW 10.4 mph - 0.00 in   Overcast
2:26 PM 33.8 °F 24.3 °F 28.4 °F 81% 30.03 in 4.0 mi West 13.8 mph 24.2 mph 0.00 in   Overcast
2:35 PM 33.8 °F 25.3 °F 30.2 °F 87% 30.04 in 5.0 mi West 11.5 mph 20.7 mph 0.00 in   Overcast
2:53 PM 30.9 °F 20.7 °F 28.0 °F 89% 30.08 in 4.0 mi West 13.8 mph 20.7 mph 0.00 in   Overcast
3:06 PM 30.2 °F 20.2 °F 26.6 °F 86% 30.06 in 3.0 mi West 12.7 mph 24.2 mph N/A   Overcast
3:15 PM 30.2 °F 20.2 °F 24.8 °F 80% 30.07 in 7.0 mi West 12.7 mph 20.7 mph N/A   Overcast
3:53 PM 30.0 °F 19.1 °F 21.9 °F 72% 30.13 in 9.0 mi West 15.0 mph 19.6 mph N/A   Overcast
4:53 PM 28.9 °F 19.2 °F 23.0 °F 78% 30.17 in 8.0 mi West 11.5 mph - N/A   Overcast
5:53 PM 27.0 °F 14.7 °F 21.0 °F 78% 30.21 in 7.0 mi WNW 16.1 mph 23.0 mph N/A   Overcast
6:53 PM 26.1 °F 16.2 °F 19.0 °F 75% 30.25 in 7.0 mi WNW 10.4 mph - N/A   Overcast
7:53 PM 26.1 °F 16.8 °F 19.9 °F 78% 30.27 in 6.0 mi West 9.2 mph - N/A   Haze
8:53 PM 26.1 °F 16.2 °F 19.9 °F 78% 30.30 in 6.0 mi West 10.4 mph - N/A   Haze
9:11 PM 26.6 °F 18.2 °F 19.4 °F 74% 30.28 in 6.0 mi West 8.1 mph - N/A   Haze
9:53 PM 26.1 °F 17.6 °F 21.0 °F 81% 30.32 in 6.0 mi West 8.1 mph - N/A   Haze
10:53 PM 27.0 °F 20.5 °F 21.9 °F 81% 30.34 in 5.0 mi West 5.8 mph - N/A   Haze
11:00 PM 26.6 °F 22.6 °F 21.2 °F 80% 30.31 in 5.0 mi West 3.5 mph - N/A   Haze
11:53 PM 27.0 °F 20.5 °F 21.9 °F 81% 30.35 in 6.0 mi West 5.8 mph - N/A   Haze